Weather History for Vidsel, Sweden

Change the Weather History Date:

Wednesday, February 13, 2013

  Actual Average Record
Temperature  
Mean Temperature 14 °F -  
Max Temperature 21 °F - - ()
Min Temperature 8 °F - - ()
Degree Days  
Heating Degree Days 50    
Moisture  
Dew Point 13 °F    
Average Humidity 92    
Maximum Humidity 100    
Minimum Humidity 85    
Precipitation  
Precipitation 0.00 in - - ()
Sea Level Pressure  
Sea Level Pressure 30.41 in    
Wind  
Wind Speed 1 mph ()    
Max Wind Speed 6 mph    
Max Gust Speed -    
Visibility 4.8 miles    
Events Rain , Snow    
T = Trace of Precipitation, MM = Missing Value Source: Averaged Metar Reports

Daily Weather History Graph

Daily Weather History Graph

Search for Another Location

Airport:

Trip Planner

Search our weather history database for the weather conditions in past years. The results will help you decide how hot, cold, wet, or windy it might be!

Date:

Astronomy

Feb. 13, 2013 Rise Set
Actual Time 7:51 AM CET 3:57 PM CET
Civil Twilight 6:55 AM CET 4:53 PM CET
Nautical Twilight 5:54 AM CET 5:53 PM CET
Astronomical Twilight 4:56 AM CET 6:52 PM CET
Moon 7:29 AM CET (2/13) 9:38 PM CET (2/13)
Length of Visible Light 9h 58m
Length of Day
8h 06m
Waxing Crescent, 12% of the Moon is Illuminated
Feb 13
Waxing Crescent
Feb 17
First Quarter
Feb 25
Full
Mar 4
Last Quarter
Mar 11
New

Hourly Weather History & Observations

Time (CET) Temp. Windchill Dew Point Humidity Pressure Visibility Wind Dir Wind Speed Gust Speed Precip Events Conditions
12:20 AM 8.6 °F 2.0 °F 6.8 °F 92% 30.45 in 6.2 mi WSW 3.5 mph - N/A Snow Light Snow
12:50 AM 8.6 °F - 6.8 °F 92% 30.45 in 5.0 mi Variable 1.2 mph - N/A Snow Light Snow
1:20 AM 8.6 °F - 6.8 °F 92% 30.42 in 5.6 mi Variable 1.2 mph - N/A Snow Light Snow
1:50 AM 10.4 °F - 6.8 °F 85% 30.45 in 6.2 mi Variable 1.2 mph - N/A Snow Light Snow
2:20 AM 10.4 °F - 6.8 °F 85% 30.45 in 6.2 mi Variable 1.2 mph - N/A Snow Light Snow Grains
2:50 AM 10.4 °F - 8.6 °F 92% 30.45 in 6.2 mi Variable 1.2 mph - N/A Snow Light Snow Grains
3:20 AM 10.4 °F - 8.6 °F 92% 30.45 in 6.2 mi Variable 1.2 mph - N/A Snow Light Snow Grains
3:50 AM 10.4 °F - 8.6 °F 92% 30.45 in 6.2 mi Calm Calm - N/A Snow Light Snow Grains
4:20 AM 10.4 °F - 8.6 °F 92% 30.42 in 6.2 mi Calm Calm - N/A Snow Light Snow
4:50 AM 10.4 °F - 8.6 °F 92% 30.45 in 6.2 mi Calm Calm - N/A Snow Light Snow Showers
5:20 AM 10.4 °F - 8.6 °F 92% 30.42 in 3.7 mi Calm Calm - N/A Snow Light Snow Showers
5:50 AM 12.2 °F - 8.6 °F 85% 30.42 in 1.6 mi Variable 1.2 mph - N/A Snow Light Snow
6:20 AM 12.2 °F - 10.4 °F 92% 30.42 in 4.3 mi Calm Calm - N/A Snow Light Snow
6:50 AM 12.2 °F - 10.4 °F 92% 30.42 in 5.0 mi Calm Calm - N/A Snow Light Snow
7:20 AM 12.2 °F - 10.4 °F 92% 30.42 in 5.6 mi Calm Calm - N/A Snow Light Snow
7:50 AM 12.2 °F - 10.4 °F 92% 30.42 in 6.2 mi Calm Calm - N/A Snow Light Snow
8:20 AM 12.2 °F - 10.4 °F 92% 30.42 in 6.2 mi Variable 1.2 mph - N/A Snow Light Snow
8:50 AM 12.2 °F - 10.4 °F 92% 30.42 in 5.6 mi Variable 1.2 mph - N/A Snow Light Snow
9:20 AM 14.0 °F - 10.4 °F 86% 30.42 in 2.5 mi Calm Calm - N/A Snow Light Snow
9:50 AM 14.0 °F - 10.4 °F 86% 30.42 in 2.2 mi Calm Calm - N/A Snow Light Snow
10:20 AM 14.0 °F - 12.2 °F 93% 30.42 in 2.5 mi Calm Calm - N/A Snow Light Snow
10:50 AM 14.0 °F - 12.2 °F 93% 30.42 in 2.5 mi Calm Calm - N/A Snow Light Snow
11:20 AM 15.8 °F - 14.0 °F 93% 30.42 in 4.3 mi Calm Calm - N/A Snow Light Snow
11:50 AM 15.8 °F - 14.0 °F 93% 30.42 in 5.0 mi Calm Calm - N/A Snow Light Snow
12:20 PM 15.8 °F - 14.0 °F 93% 30.42 in 2.5 mi ESE 2.3 mph - N/A Snow Light Snow
12:50 PM 15.8 °F - 15.8 °F 100% 30.42 in 2.8 mi Variable 1.2 mph - N/A Snow Light Snow
1:20 PM 17.6 °F - 15.8 °F 93% 30.42 in 2.2 mi Variable 1.2 mph - N/A Snow Light Snow
1:50 PM 17.6 °F 12.3 °F 15.8 °F 93% 30.42 in 2.5 mi ESE 3.5 mph - N/A Snow Light Snow
2:20 PM 17.6 °F 10.7 °F 15.8 °F 93% 30.42 in 6.2 mi East 4.6 mph - N/A Snow Light Snow
2:50 PM 17.6 °F 12.3 °F 15.8 °F 93% 30.42 in 1.9 mi ESE 3.5 mph - N/A Snow Light Snow
3:20 PM 17.6 °F - 15.8 °F 93% 30.42 in 2.2 mi Variable 1.2 mph - N/A Snow Light Snow
3:50 PM - - 32.0 °F N/A% 30.39 in 0.9 mi ESE 3.5 mph - N/A   Unknown
4:20 PM 17.6 °F - 15.8 °F 93% 30.39 in 1.6 mi Variable 2.3 mph - N/A Snow Light Snow
4:50 PM 17.6 °F - 15.8 °F 93% 30.39 in 6.2 mi Variable 2.3 mph - N/A Rain Light Freezing Rain
5:20 PM 17.6 °F - 15.8 °F 93% 30.39 in 6.2 mi Variable 2.3 mph - N/A Snow Light Snow
5:50 PM 15.8 °F - 14.0 °F 93% 30.39 in 6.2 mi ESE 2.3 mph - N/A   Overcast
6:20 PM 15.8 °F - 14.0 °F 93% 30.39 in 6.2 mi Variable 1.2 mph - N/A Snow Light Snow
6:50 PM 14.0 °F - 12.2 °F 93% 30.39 in 6.2 mi Calm Calm - N/A   Overcast
7:20 PM 14.0 °F - 12.2 °F 93% 30.39 in 6.2 mi Calm Calm - N/A Snow Light Snow Showers
7:50 PM 14.0 °F - 12.2 °F 93% 30.39 in 6.2 mi Calm Calm - N/A Snow Light Snow Showers
8:20 PM 14.0 °F 8.2 °F 12.2 °F 93% 30.36 in 6.2 mi ESE 3.5 mph - N/A Snow Light Snow Showers
8:50 PM 14.0 °F - 12.2 °F 93% 30.36 in 6.2 mi Calm Calm - N/A Snow Light Snow Showers
9:20 PM 15.8 °F 8.6 °F 14.0 °F 93% 30.36 in 6.2 mi East 4.6 mph - N/A Snow Light Snow Showers
9:50 PM 17.6 °F 10.7 °F 15.8 °F 93% 30.36 in 6.2 mi ESE 4.6 mph - N/A   Mostly Cloudy
10:20 PM 19.4 °F 12.8 °F 17.6 °F 93% 30.36 in 6.2 mi ESE 4.6 mph - N/A Snow Light Snow Showers
10:50 PM 19.4 °F 11.5 °F 17.6 °F 93% 30.36 in 3.7 mi East 5.8 mph - N/A Snow Light Snow Showers
11:20 PM 21.2 °F 13.6 °F 19.4 °F 93% 30.36 in 6.2 mi East 5.8 mph - N/A Snow Light Snow Showers
11:50 PM 19.4 °F 11.5 °F 17.6 °F 93% 30.36 in 6.2 mi ESE 5.8 mph - N/A Snow Light Snow Showers